• In Austria
  • List of Countries
  • For 7 days
  • Water Temperature
  • Satellite Maps
  • Weather Map
  • News
  • Weather Widgets
  • user-avatar
    Login

    Hourly Weather Albany

    Today, 16 October, Tuesday

    Time Temperature Precipitation Wind Pressure Humidity
    00:00 +14°C° 0 mm 2 mps 762 mmHg 85%
    01:00 +12°C° 0 mm 3 mps 762 mmHg 86%
    02:00 +12°C° 0 mm 3 mps 762 mmHg 84%
    03:00 +12°C° 0 mm 3 mps 762 mmHg 86%
    04:00 +11°C° 0 mm 3 mps 762 mmHg 87%
    05:00 +11°C° 0 mm 3 mps 762 mmHg 88%
    06:00 +12°C° 0 mm 3 mps 762 mmHg 82%
    07:00 +14°C° 0 mm 3 mps 762 mmHg 77%
    08:00 +16°C° 0 mm 3 mps 762 mmHg 72%
    09:00 +18°C° 0 mm 3 mps 762 mmHg 64%
    10:00 +21°C° 0 mm 3 mps 762 mmHg 57%
    11:00 +24°C° 0 mm 3 mps 762 mmHg 50%
    12:00 +25°C° 0 mm 3 mps 761 mmHg 48%
    13:00 +25°C° 0 mm 3 mps 761 mmHg 46%
    14:00 +26°C° 0 mm 3 mps 760 mmHg 44%
    15:00 +25°C° 0 mm 3 mps 760 mmHg 50%
    16:00 +23°C° 0 mm 4 mps 760 mmHg 56%
    17:00 +22°C° 0 mm 4 mps 759 mmHg 61%
    18:00 +20°C° 0 mm 4 mps 760 mmHg 68%
    19:00 +19°C° 0 mm 4 mps 760 mmHg 74%
    20:00 +17°C° 0 mm 4 mps 760 mmHg 80%
    21:00 +15°C° 0 mm 4 mps 760 mmHg 81%
    22:00 +15°C° 0 mm 4 mps 759 mmHg 82%
    23:00 +14°C° 0 mm 4 mps 759 mmHg 82%

    Tomorrow, 17 October, Wednesday

    Time Temperature Precipitation Wind Pressure Humidity
    00:00 +14°C° 0 mm 4 mps 758 mmHg 82%
    01:00 +14°C° 0 mm 4 mps 758 mmHg 81%
    02:00 +14°C° 0 mm 4 mps 757 mmHg 81%
    03:00 +14°C° 0 mm 4 mps 757 mmHg 77%
    04:00 +14°C° 0 mm 4 mps 756 mmHg 72%
    05:00 +14°C° 0 mm 4 mps 755 mmHg 68%
    06:00 +16°C° 0 mm 5 mps 755 mmHg 61%
    07:00 +19°C° 0 mm 6 mps 755 mmHg 54%
    08:00 +22°C° 0 mm 6 mps 754 mmHg 47%
    09:00 +24°C° 0 mm 7 mps 754 mmHg 43%
    10:00 +27°C° 0 mm 7 mps 753 mmHg 39%
    11:00 +29°C° 0 mm 7 mps 753 mmHg 36%
    12:00 +30°C° 0 mm 7 mps 752 mmHg 34%
    13:00 +32°C° 0 mm 7 mps 751 mmHg 33%
    14:00 +33°C° 0 mm 7 mps 750 mmHg 31%
    15:00 +32°C° 0 mm 6 mps 749 mmHg 34%
    16:00 +30°C° 0 mm 6 mps 748 mmHg 37%
    17:00 +29°C° 0 mm 5 mps 747 mmHg 40%
    18:00 +27°C° 0.1 mm 5 mps 747 mmHg 49%
    19:00 +23°C° 0.1 mm 5 mps 747 mmHg 58%
    20:00 +21°C° 0.1 mm 5 mps 746 mmHg 67%
    21:00 +19°C° 0.1 mm 5 mps 746 mmHg 70%
    22:00 +16°C° 0.1 mm 5 mps 746 mmHg 73%
    23:00 +15°C° 0.1 mm 5 mps 746 mmHg 76%

    Day after tomorrow, 18 October, Thursday

    Time Temperature Precipitation Wind Pressure Humidity
    00:00 +14°C° 0 mm 5 mps 746 mmHg 78%
    01:00 +14°C° 0 mm 6 mps 746 mmHg 81%
    02:00 +14°C° 0 mm 7 mps 746 mmHg 83%
    03:00 +14°C° 0 mm 7 mps 746 mmHg 81%
    04:00 +14°C° 0 mm 7 mps 746 mmHg 79%
    05:00 +14°C° 0 mm 7 mps 746 mmHg 76%
    06:00 +14°C° 0.2 mm 7 mps 747 mmHg 76%
    07:00 +14°C° 0.2 mm 7 mps 747 mmHg 76%
    08:00 +14°C° 0.2 mm 7 mps 748 mmHg 76%
    09:00 +14°C° 0.9 mm 6 mps 748 mmHg 78%
    10:00 +13°C° 0.9 mm 6 mps 748 mmHg 80%
    11:00 +13°C° 0.9 mm 6 mps 748 mmHg 82%
    12:00 +11°C° 2 mm 6 mps 748 mmHg 84%
    13:00 +10°C° 2 mm 7 mps 748 mmHg 86%
    14:00 +9°C° 2 mm 7 mps 749 mmHg 89%
    15:00 +9°C° 0.5 mm 8 mps 749 mmHg 86%
    16:00 +10°C° 0.5 mm 8 mps 750 mmHg 84%
    17:00 +10°C° 0.5 mm 8 mps 751 mmHg 82%
    18:00 +9°C° 0.4 mm 8 mps 752 mmHg 83%
    19:00 +7°C° 0.4 mm 8 mps 753 mmHg 84%
    20:00 +6°C° 0.4 mm 7 mps 754 mmHg 85%
    21:00 +6°C° 0.2 mm 7 mps 754 mmHg 84%
    22:00 +6°C° 0.2 mm 7 mps 755 mmHg 83%
    23:00 +6°C° 0.2 mm 7 mps 755 mmHg 82%

    19 October, Friday

    Time Temperature Precipitation Wind Pressure Humidity
    00:00 +6°C° 0.2 mm 7 mps 755 mmHg 82%
    01:00 +6°C° 0.2 mm 8 mps 755 mmHg 81%
    02:00 +6°C° 0.2 mm 8 mps 755 mmHg 80%
    03:00 +6°C° 0.1 mm 7 mps 756 mmHg 80%
    04:00 +8°C° 0.1 mm 7 mps 756 mmHg 81%
    05:00 +8°C° 0.1 mm 7 mps 756 mmHg 81%
    06:00 +9°C° 0.1 mm 7 mps 757 mmHg 79%
    07:00 +10°C° 0.1 mm 7 mps 758 mmHg 76%
    08:00 +10°C° 0.1 mm 7 mps 758 mmHg 74%
    09:00 +12°C° 0.1 mm 7 mps 758 mmHg 69%
    10:00 +15°C° 0.1 mm 7 mps 759 mmHg 63%
    11:00 +16°C° 0.1 mm 7 mps 759 mmHg 58%
    12:00 +17°C° 0 mm 7 mps 759 mmHg 56%
    13:00 +17°C° 0 mm 7 mps 759 mmHg 55%
    14:00 +18°C° 0 mm 7 mps 759 mmHg 53%
    15:00 +18°C° 0.1 mm 7 mps 759 mmHg 55%
    16:00 +17°C° 0.1 mm 7 mps 759 mmHg 58%
    17:00 +17°C° 0.1 mm 7 mps 759 mmHg 60%
    18:00 +16°C° 0 mm 7 mps 760 mmHg 65%
    19:00 +15°C° 0 mm 6 mps 760 mmHg 70%
    20:00 +13°C° 0 mm 6 mps 761 mmHg 75%
    21:00 +13°C° 0 mm 6 mps 761 mmHg 78%
    22:00 +11°C° 0 mm 6 mps 760 mmHg 81%
    23:00 +11°C° 0 mm 6 mps 760 mmHg 84%

    20 October, Saturday

    Time Temperature Precipitation Wind Pressure Humidity
    00:00 +11°C° 0 mm 6 mps 760 mmHg 85%
    01:00 +10°C° 0 mm 7 mps 760 mmHg 85%
    02:00 +10°C° 0 mm 7 mps 759 mmHg 86%
    03:00 +10°C° 0 mm 7 mps 759 mmHg 86%
    04:00 +10°C° 0 mm 7 mps 759 mmHg 86%
    05:00 +10°C° 0 mm 7 mps 759 mmHg 85%
    06:00 +12°C° 0 mm 7 mps 759 mmHg 80%
    07:00 +13°C° 0 mm 8 mps 759 mmHg 74%
    08:00 +15°C° 0 mm 8 mps 759 mmHg 69%
    09:00 +16°C° 0 mm 8 mps 759 mmHg 68%
    10:00 +16°C° 0 mm 8 mps 758 mmHg 67%
    11:00 +17°C° 0 mm 8 mps 758 mmHg 65%
    12:00 +17°C° 0 mm 8 mps 757 mmHg 64%
    13:00 +18°C° 0 mm 8 mps 757 mmHg 63%
    14:00 +18°C° 0 mm 8 mps 756 mmHg 61%
    15:00 +18°C° 0 mm 8 mps 756 mmHg 63%
    16:00 +17°C° 0 mm 8 mps 756 mmHg 64%
    17:00 +17°C° 0 mm 8 mps 756 mmHg 65%
    18:00 +16°C° 0 mm 8 mps 757 mmHg 68%
    19:00 +15°C° 0 mm 8 mps 757 mmHg 71%
    20:00 +13°C° 0 mm 8 mps 757 mmHg 74%
    21:00 +13°C° 0 mm 8 mps 757 mmHg 77%
    22:00 +12°C° 0 mm 8 mps 756 mmHg 80%
    23:00 +12°C° 0 mm 8 mps 756 mmHg 82%

    21 October, Sunday

    Time Temperature Precipitation Wind Pressure Humidity
    00:00 +12°C° 0 mm 8 mps 755 mmHg 81%
    01:00 +12°C° 0 mm 8 mps 755 mmHg 80%
    02:00 +12°C° 0 mm 8 mps 754 mmHg 79%
    03:00 +12°C° 0.1 mm 8 mps 754 mmHg 78%
    04:00 +13°C° 0.1 mm 9 mps 754 mmHg 77%
    05:00 +13°C° 0.1 mm 9 mps 754 mmHg 77%
    06:00 +13°C° 1 mm 8 mps 754 mmHg 81%
    07:00 +13°C° 1 mm 8 mps 754 mmHg 84%
    08:00 +13°C° 1 mm 8 mps 754 mmHg 88%
    09:00 +14°C° 1.2 mm 7 mps 754 mmHg 88%
    10:00 +14°C° 1.2 mm 7 mps 755 mmHg 89%
    11:00 +14°C° 1.2 mm 7 mps 755 mmHg 89%
    12:00 +14°C° 0.1 mm 7 mps 755 mmHg 82%
    13:00 +14°C° 0.1 mm 7 mps 755 mmHg 76%
    14:00 +13°C° 0.1 mm 8 mps 755 mmHg 70%
    15:00 +13°C° 0.1 mm 8 mps 756 mmHg 70%
    16:00 +12°C° 0.1 mm 8 mps 756 mmHg 70%
    17:00 +12°C° 0.1 mm 8 mps 756 mmHg 71%
    18:00 +11°C° 0.1 mm 8 mps 757 mmHg 72%
    19:00 +11°C° 0.1 mm 7 mps 758 mmHg 73%
    20:00 +10°C° 0.1 mm 7 mps 759 mmHg 74%
    21:00 +10°C° 0 mm 7 mps 759 mmHg 74%
    22:00 +9°C° 0 mm 7 mps 759 mmHg 75%
    23:00 +9°C° 0 mm 7 mps 760 mmHg 75%
    Show more